Norfolk, NE

12:30 PM CST on December 08, 2019 (GMT -0600)
Stefan Memorial

Weather History for KOFK - October, 2019

Change the Weather History Date:

Wednesday, October 2, 2019

  Actual Average Record
Temperature  
Mean Temperature 49 °F 57 °F  
Max Temperature 51 °F 70 °F 93 °F (1992)
Min Temperature 46 °F 44 °F 28 °F (1999)
Degree Days  
Heating Degree Days 16 9  
Month to date heating degree days 26 18  
Since 1 July heating degree days 56 160  
Cooling Degree Days 0 1  
Month to date cooling degree days 0 2  
Year to date cooling degree days 949 908  
Moisture  
Dew Point 46 °F    
Average Humidity 93    
Maximum Humidity 100    
Minimum Humidity 86    
Precipitation  
Precipitation 0.31 in 0.08 in 1.17 in (2013)
Month to date precipitation 1.44 0.17  
Year to date precipitation 23.47 23.39  
Snow  
Snow 0.00 in 0.00 in - ()
Since 1 July snowfall 0.0 T  
Since 1 September snowfall 0.0 T  
Snow Depth 0.00 in    
Sea Level Pressure  
Sea Level Pressure 30.04 in    
Wind  
Wind Speed 10 mph (NNW)    
Max Wind Speed 17 mph    
Max Gust Speed 24 mph    
Visibility 7 miles    
Events Rain    
T = Trace of Precipitation, MM = Missing Value Source: NWS Daily Summary

Daily Weather History Graph

Daily Weather History Graph

Search for Another Location

Airport or City:

Astronomy

Oct. 02, 2019 Rise Set
Actual Time 7:27 AM CDT 7:09 PM CDT
Civil Twilight 6:59 AM CDT 7:37 PM CDT
Nautical Twilight 6:27 AM CDT 8:10 PM CDT
Astronomical Twilight 5:54 AM CDT 8:42 PM CDT
Moon 11:58 AM CDT (10/2) 10:00 PM CDT (10/2)
Length of Visible Light 12h 38m
Length of Day
11h 42m
Waxing Crescent, 20% of the Moon is Illuminated
Oct 2
Waxing Crescent
Oct 5
First Quarter
Oct 13
Full
Oct 21
Last Quarter
Oct 27
New

Hourly Weather History & Observations

Time (CDT) Temp. Dew Point Humidity Pressure Visibility Wind Dir Wind Speed Gust Speed Precip Events Conditions
1:56 AM 48.9 °F 46.9 °F 93% 30.04 in 10.0 mi North 12.7 mph - N/A   Overcast
2:56 AM 48.9 °F 46.9 °F 93% 30.04 in 10.0 mi North 10.4 mph - N/A   Overcast
3:56 AM 50.0 °F 46.9 °F 89% 30.01 in 10.0 mi NE 11.5 mph 23.0 mph N/A   Overcast
4:56 AM 50.0 °F 46.9 °F 89% 30.00 in 10.0 mi NNE 12.7 mph - N/A   Overcast
5:56 AM 50.0 °F 46.9 °F 89% 30.02 in 10.0 mi NNE 11.5 mph - N/A   Overcast
6:56 AM 48.0 °F 46.0 °F 93% 30.00 in 7.0 mi NNE 10.4 mph - N/A   Overcast
7:56 AM 48.0 °F 46.0 °F 93% 30.03 in 5.0 mi NNE 9.2 mph - 0.00 in Rain Light Rain
8:28 AM 48.0 °F 46.9 °F 96% 30.02 in 3.0 mi North 8.1 mph - 0.01 in Rain Light Rain
8:53 AM 48.2 °F 46.4 °F 93% 30.00 in 4.0 mi NNE 8.1 mph - 0.01 in Rain Light Rain
8:56 AM 48.0 °F 46.9 °F 96% 30.03 in 3.0 mi NNE 5.8 mph - 0.01 in Rain Light Rain
9:24 AM 48.0 °F 46.9 °F 96% 30.02 in 5.0 mi North 6.9 mph - 0.08 in Rain Light Rain
9:45 AM 48.0 °F 46.9 °F 96% 30.01 in 1.8 mi North 9.2 mph - 0.09 in Rain Rain
9:56 AM 48.0 °F 46.9 °F 96% 30.03 in 2.5 mi North 9.2 mph - 0.11 in Rain Light Rain
10:13 AM 48.0 °F 46.9 °F 96% 30.01 in 1.2 mi North 8.1 mph - 0.04 in Rain Heavy Rain
10:20 AM 48.0 °F 46.9 °F 96% 30.02 in 3.0 mi North 8.1 mph - 0.07 in Rain Light Rain
10:56 AM 48.9 °F 46.9 °F 93% 30.04 in 5.0 mi NNW 9.2 mph - 0.09 in Rain Rain
11:56 AM 48.9 °F 46.9 °F 93% 30.01 in 3.0 mi North 11.5 mph - 0.06 in Rain Rain
12:56 PM 48.9 °F 46.9 °F 93% 30.02 in 3.0 mi North 8.1 mph - 0.03 in Rain Light Rain
1:29 PM 48.9 °F 46.9 °F 93% 30.01 in 2.0 mi North 9.2 mph - 0.00 in Rain Light Rain
1:56 PM 48.9 °F 48.0 °F 97% 30.01 in 3.0 mi NNW 11.5 mph - 0.01 in Rain Light Rain
2:11 PM 48.9 °F 46.9 °F 93% 29.99 in 3.0 mi North 10.4 mph - 0.00 in Rain Light Rain
2:18 PM 48.9 °F 46.9 °F 93% 30.00 in 3.0 mi NNW 10.4 mph - 0.00 in Rain Light Rain
2:56 PM 51.1 °F 48.0 °F 89% 29.99 in 10.0 mi North 8.1 mph - 0.00 in   Overcast
3:09 PM 50.0 °F 46.9 °F 89% 29.98 in 10.0 mi NNW 9.2 mph - N/A   Overcast
3:56 PM 50.0 °F 46.9 °F 89% 30.00 in 10.0 mi NW 8.1 mph - N/A   Overcast
4:56 PM 50.0 °F 46.9 °F 89% 30.01 in 10.0 mi NNW 6.9 mph - N/A   Overcast
5:56 PM 50.0 °F 46.0 °F 86% 30.01 in 10.0 mi NW 12.7 mph - N/A   Overcast
6:51 PM 48.2 °F 44.6 °F 87% 30.03 in 10.0 mi NW 9.2 mph - N/A   Overcast
6:56 PM 48.9 °F 45.0 °F 86% 30.05 in 6.0 mi NW 11.5 mph - 0.00 in Rain Light Rain
7:56 PM 48.0 °F 45.0 °F 89% 30.08 in 10.0 mi NW 12.7 mph - 0.00 in   Overcast
8:22 PM 46.9 °F 44.1 °F 90% 30.07 in 10.0 mi NW 8.1 mph - N/A   Partly Cloudy
8:47 PM 46.9 °F 44.1 °F 90% 30.08 in 10.0 mi WNW 8.1 mph - N/A   Mostly Cloudy
8:56 PM 46.9 °F 44.1 °F 90% 30.10 in 10.0 mi WNW 11.5 mph - N/A   Mostly Cloudy
9:42 PM 46.9 °F 44.1 °F 90% 30.10 in 10.0 mi NW 11.5 mph - N/A   Mostly Cloudy
9:56 PM 46.9 °F 44.1 °F 90% 30.13 in 10.0 mi NW 9.2 mph - N/A   Overcast
10:10 PM 46.9 °F 44.1 °F 90% 30.11 in 10.0 mi NW 10.4 mph - N/A   Overcast
10:56 PM 46.9 °F 44.1 °F 90% 30.14 in 10.0 mi WNW 11.5 mph - N/A   Overcast
11:56 PM 46.9 °F 44.1 °F 90% 30.15 in 10.0 mi NW 8.1 mph - N/A   Overcast